Home   Weather   Liezen   Past weeks

Flag for Austria Past Weather in Liezen, Styria, Austria — Yesterday and Last 2 Weeks

Now
58 °F

Cool.


Feels Like: 58 °F
Forecast: 45 / 69 °F
Wind: 1 mph from Southwest

Location: Aigen Im Ennstal

Current Time: Sep 25, 2016 at 7:35:04 PM

Latest Report: Sep 25, 2016 at 7:00 PM


Visibility: N/A

Pressure: 30.10 "Hg (27.83 "Hg at 661m altitude)

Humidity: 66%

Dew Point: 47 °F

Location of LiezenLocation

Past Weather in Liezen — Graph

°F

Liezen Temperature Yesterday

Maximum temperature yesterday: 69 °F (at 4:00 PM)
Minimum temperature yesterday: 42 °F (at 6:00 AM)
Average temperature yesterday: 53 °F

High & Low Weather Summary for the Past Weeks

 TemperatureHumidityPressure
High80 °F (Sep 12, 4:00 PM)98% (Sep 24, 7:00 AM)30.43 "Hg (Sep 24, 7:00 AM)
Low35 °F (Sep 22, 7:00 AM)39% (Sep 14, 4:00 PM)29.79 "Hg (Sep 18, 3:00 PM)
Average57 °F79%30.07 "Hg
* Reported Sep 10 6:00 PM — Sep 25 6:00 PM, Liezen, Weather by CustomWeather, © 2016

Note: Actual official high and low records may vary slightly from our data, if they occured in-between our weather recording intervals... More about our weather records

Advertising

Liezen Weather History for the Previous 24 Hours

Scroll right to see more
 ConditionsComfort  
Time TempWeatherWind HumidityBarometerVisibility
6:00 PM
Sun, Sep 25
66 °FMild.1 mph52%30.04 "HgN/A
5:00 PM70 °FPassing clouds.N/A47%30.01 "Hg31 mi
4:00 PM70 °FMild.2 mph48%30.03 "HgN/A
3:00 PM69 °FMild.No wind47%30.05 "HgN/A
2:00 PM65 °FPartly sunny.N/A47%30.09 "Hg31 mi
1:00 PM63 °FMild.1 mph55%30.13 "HgN/A
12:00 PM60 °FCool.1 mph63%30.17 "HgN/A
11:00 AM54 °FPartly sunny.N/A77%30.22 "Hg31 mi
10:00 AM48 °FCool.1 mph84%30.27 "HgN/A
9:00 AM41 °FQuite cool.No wind97%30.32 "HgN/A
8:00 AM38 °FFog.1 mph96%30.33 "Hg0 mi
7:00 AM38 °FFog.No wind97%30.34 "Hg0 mi
6:00 AM40 °FQuite cool.1 mph96%30.33 "HgN/A
5:00 AM38 °FFog.No wind94%30.34 "Hg12 mi
4:00 AM39 °FChilly.No wind93%30.34 "HgN/A
3:00 AM44 °FQuite cool.No wind93%30.32 "HgN/A
2:00 AM44 °FQuite cool.1 mph93%30.33 "HgN/A
1:00 AM43 °FQuite cool.1 mph93%30.34 "HgN/A
12:00 AM46 °FCool.1 mph90%30.34 "HgN/A
11:00 PM
Sat, Sep 24
45 °FPassing clouds.N/A91%30.34 "Hg19 mi
10:00 PM47 °FCool.1 mph87%30.33 "HgN/A
9:00 PM48 °FCool.No wind87%30.32 "HgN/A
8:00 PM53 °FPassing clouds.N/A78%30.27 "Hg19 mi
7:00 PM58 °FCool.2 mph61%30.25 "HgN/A
Weather by CustomWeather, © 2016

See weather overviewHow to use our weather pages